Showing default

GJZ 01, 62290

Orbit data source: Space-Track

GJZ 01, 62290 is a payload satellite owned by CASC (CN) in LEO that was launched on Thu, 12 Dec 2024 UTC via a CHANG ZHENG 2D/YZ-3 launch vehicle from the Jiuquan Satellite Launch Center, China (JSC). Payload-class satellites include a variety of spacecraft equipped with specific instruments for various scientific and technological missions. These include communications satellites like Starlink; space stations such as the ISS; scientific satellites like the Hubble; Earth observation satellites from companies like Planet Labs, Umbra, and HawkEye 360; GPS; miniature CubeSats for education and research; and military/defense satellites.

Loading next visibility...
Identifier
62290, 2024-238A
Orbit
LEO
Country
Flag of CNCN / PRC
Related business
Manufacturer
HITSAT
Mission
Operational Civil Communications
Bus & Motor
HARBFLAT, Unknown motor
Mass
~150 kg wet, ~150 kg dry
Launch date (UTC)
2024-12-12 (11 months ago)
Launch vehicle
CHANG ZHENG 2D/YZ-3
Launch site
Jiuquan Satellite Launch Center, China (JSC)
Object type
Payload
Rocket body
Debris
Shape & HBR
Box + 2 Pan, 1.5 m
Radar Cross Section
0.240 m², Large (>1 m²)

Expand to show TLE details & history
Last TLE update: 13 hours ago

TLE from 13 hours ago
0 GJZ 01
1 62290U 24238A   25305.63112900  .00000016  00000-0  14047-3 0  9991
2 62290  59.9132 255.4253 0028263  80.9301 279.4904 13.75168895 44307
Epoch: 2025-11-01T15:08Z
TLE epoch observation values (Epoch: 2025-11-01T15:08:49.545Z)
Latitude
0.00005°
Longitude
-12.93955°
Altitude
979.185 km
Speed
7.364 km/s
True Right ascension
17h 01m 42s
True Declination
0° 00' 00"
Sunlit
Object was in daylight at epoch
Visualization orbit readout
Latitude
Unknown
Longitude
Unknown
Altitude
Unknown
Speed
Unknown
Apparent Right ascension
Unknown
Apparent Declination
Unknown
Sunlit
N/A
Visualization observer readout
Local Sidereal Time
23:26:50
Azimuth
Unknown
Elevation
Unknown
Doppler factor
Unknown
Orbital elements
Apogee altitude
1,001.138 km
Perigee altitude
959.543 km
Semi-major axis
7,358.477 km
Eccentricity
0.00283
Inclination
59.9132°
RAAN
255.4253°
Arg. of periapsis
80.9301°
True anomaly
279.17078°
Mean anomaly
279.4904°
Eccentric anomaly
279.33061°
Mean motion
3.43844 °/min
Orbital period
104.7 mins
BSTAR
0.00014047
Loading maneuver chart data...
Computing Atmospheric mass density...
Loading historical data...
Loading historical data...
Loading historical data...
Loading historical data...
Loading historical data...
Loading historical data...
Loading historical data...
Other satellites on launch #238 in the year 2024 (2024-12-12 UTC)

Documentation

Showing up to 5 results
|